Date String (YYYY-MM-DD hh:mm:ss) UTC,Instrument flags,Ambient pressure (hPa),Sample flow (lpm),Bypass flow (lpm),Sample temperature (°C),Ambient temperature (°C),ASC tube jacket temperature (°C),LED temperature (°C),Box temperature (°C),Sample RH (%),Span deviation,Mass concentration (μg/m³),Mass concentration (μg/m³),Mass concentration (μg/m³)
DateTimeUTC,F1_M11,P_M11,Q1_M11,Q2_M11,T1_M11,T2_M11,T3_M11,T4_M11,T5_M11,U1_M11,ZSPAN_M11,X0_M11,X2_M11,X1_M11
2023-05-17 18:00:00,,0830.1,5.01,0.00,29.2,27.8,00.0,37.5,30.9,17.5,0000.0,0010.34,0004.40,0003.37
2023-05-17 18:01:00,,0830.1,5.01,0.00,29.2,27.9,00.0,37.5,30.9,17.9,0000.0,0010.34,0004.39,0003.35
2023-05-17 18:02:00,,0830.1,5.01,0.00,29.3,28.0,00.0,37.5,31.0,18.3,0000.0,0010.63,0004.33,0003.34
2023-05-17 18:03:00,,0830.1,4.99,0.00,29.3,28.0,00.0,37.5,31.0,17.5,0000.0,0010.48,0004.38,0003.34
2023-05-17 18:04:00,,0830.1,5.00,0.00,29.3,28.0,00.0,37.5,31.0,17.2,0000.0,0010.13,0004.35,0003.33
2023-05-17 18:05:00,,0830.0,5.00,0.00,29.3,26.6,00.0,37.5,30.9,16.4,0000.0,0010.20,0004.33,0003.32
2023-05-17 18:06:00,,0830.0,5.00,0.00,29.2,25.6,00.0,37.4,30.7,16.2,0000.0,0010.12,0004.30,0003.32
2023-05-17 18:07:00,,0830.0,5.02,0.00,29.2,25.7,00.0,37.4,30.5,17.1,0000.0,0010.05,0004.32,0003.31
2023-05-17 18:08:00,,0830.0,5.00,0.00,29.1,25.9,00.0,37.4,30.5,17.8,0000.0,0010.12,0004.33,0003.32
2023-05-17 18:09:00,,0830.0,5.00,0.00,29.1,26.2,00.0,37.4,30.6,17.9,0000.0,0009.97,0004.36,0003.33
2023-05-17 18:10:00,,0830.0,5.00,0.00,29.1,26.5,00.0,37.4,30.6,17.1,0000.0,0010.14,0004.40,0003.34
2023-05-17 18:11:00,,0830.0,5.00,0.00,29.1,26.8,00.0,37.4,30.7,18.2,0000.0,0010.15,0004.40,0003.35
2023-05-17 18:12:00,,0830.0,5.00,0.00,29.1,27.0,00.0,37.4,30.7,17.9,0000.0,0010.11,0004.38,0003.36
2023-05-17 18:13:00,,0830.0,5.00,0.00,29.1,27.2,00.0,37.4,30.8,18.3,0000.0,0009.61,0004.39,0003.37
2023-05-17 18:14:00,,0830.0,5.00,0.00,29.1,27.4,00.0,37.4,30.8,18.4,0000.0,0009.45,0004.35,0003.36
2023-05-17 18:15:00,,0830.0,4.99,0.00,29.1,27.5,00.0,37.4,30.8,18.4,0000.0,0009.40,0004.35,0003.37
2023-05-17 18:16:00,,0830.0,4.98,0.00,29.2,27.7,00.0,37.4,30.9,17.6,0000.0,0009.34,0004.37,0003.38
2023-05-17 18:17:00,,0830.1,5.00,0.00,29.2,27.8,00.0,37.5,30.9,16.9,0000.0,0009.18,0004.39,0003.39
2023-05-17 18:18:00,,0830.0,5.00,0.00,29.2,27.9,00.0,37.5,30.9,16.8,0000.0,0009.36,0004.40,0003.38
2023-05-17 18:19:00,,0830.0,5.00,0.00,29.2,27.9,00.0,37.5,31.0,16.8,0000.0,0009.27,0004.32,0003.37
2023-05-17 18:20:00,,0830.0,4.99,0.00,29.3,28.0,00.0,37.5,31.0,16.9,0000.0,0008.53,0004.27,0003.35
2023-05-17 18:21:00,,0830.0,4.99,0.00,29.3,28.0,00.0,37.5,31.0,17.7,0000.0,0008.36,0004.24,0003.34
2023-05-17 18:22:00,,0830.0,5.00,0.00,29.3,26.8,00.0,37.5,30.9,18.1,0000.0,0008.74,0004.24,0003.33
2023-05-17 18:23:00,,0830.0,5.00,0.00,29.3,25.8,00.0,37.4,30.8,16.9,0000.0,0009.34,0004.25,0003.31
2023-05-17 18:24:00,,0830.0,5.01,0.00,29.2,25.9,00.0,37.4,30.7,17.0,0000.0,0009.28,0004.23,0003.30
2023-05-17 18:25:00,,0830.0,5.00,0.00,29.2,26.1,00.0,37.4,30.6,16.3,0000.0,0009.37,0004.25,0003.30
2023-05-17 18:26:00,,0830.0,5.00,0.00,29.1,26.4,00.0,37.4,30.7,16.7,0000.0,0009.50,0004.29,0003.29
2023-05-17 18:27:00,,0830.0,5.00,0.00,29.1,26.7,00.0,37.4,30.7,17.5,0000.0,0009.64,0004.26,0003.27
2023-05-17 18:28:00,,0830.0,5.00,0.00,29.1,26.9,00.0,37.4,30.7,16.4,0000.0,0009.50,0004.21,0003.25
2023-05-17 18:29:00,,0830.0,5.01,0.00,29.2,27.2,00.0,37.4,30.8,16.7,0000.0,0009.30,0004.16,0003.24
2023-05-17 18:30:00,,0830.0,4.99,0.00,29.2,27.4,00.0,37.4,30.8,16.1,0000.0,0009.20,0004.20,0003.24
2023-05-17 18:31:00,,0830.0,4.99,0.00,29.2,27.5,00.0,37.5,30.9,16.8,0000.0,0009.32,0004.25,0003.24
2023-05-17 18:32:00,,0830.0,5.00,0.00,29.2,27.7,00.0,37.5,30.9,16.6,0000.0,0009.25,0004.25,0003.26
2023-05-17 18:33:00,,0830.0,5.01,0.00,29.2,27.8,00.0,37.5,30.9,17.0,0000.0,0009.16,0004.28,0003.28
2023-05-17 18:34:00,,0830.0,5.01,0.00,29.3,27.9,00.0,37.5,31.0,16.5,0000.0,0008.72,0004.30,0003.29
2023-05-17 18:35:00,,0830.0,5.01,0.00,29.3,28.0,00.0,37.5,31.0,15.7,0000.0,0008.85,0004.34,0003.29
2023-05-17 18:36:00,,0830.0,4.98,0.00,29.3,28.1,00.0,37.5,31.0,16.3,0000.0,0009.01,0004.30,0003.28
2023-05-17 18:37:00,,0830.0,5.00,0.00,29.3,28.1,00.0,37.6,31.1,16.5,0000.0,0009.03,0004.27,0003.28
2023-05-17 18:38:00,,0830.0,5.00,0.00,29.4,26.8,00.0,37.5,30.9,16.4,0000.0,0008.82,0004.28,0003.30
2023-05-17 18:39:00,,0830.0,5.01,0.00,29.3,25.9,00.0,37.5,30.8,16.8,0000.0,0008.83,0004.31,0003.31
2023-05-17 18:40:00,,0829.9,5.01,0.00,29.3,26.0,00.0,37.4,30.7,16.7,0000.0,0008.82,0004.32,0003.33
2023-05-17 18:41:00,,0829.9,5.00,0.00,29.2,26.3,00.0,37.4,30.7,17.5,0000.0,0008.85,0004.30,0003.34
2023-05-17 18:42:00,,0829.9,4.99,0.00,29.2,26.5,00.0,37.5,30.7,17.0,0000.0,0008.89,0004.33,0003.36
2023-05-17 18:43:00,,0829.9,5.00,0.00,29.2,26.8,00.0,37.5,30.8,17.1,0000.0,0009.95,0004.35,0003.36
2023-05-17 18:44:00,,0829.9,5.00,0.00,29.2,27.1,00.0,37.5,30.8,17.3,0000.0,0011.05,0004.39,0003.36
2023-05-17 18:45:00,,0829.9,4.99,0.00,29.2,27.3,00.0,37.5,30.9,16.7,0000.0,0011.31,0004.44,0003.38
2023-05-17 18:46:00,,0829.8,5.00,0.00,29.2,27.5,00.0,37.5,30.9,16.5,0000.0,0011.42,0004.48,0003.41
2023-05-17 18:47:00,,0829.8,4.99,0.00,29.3,27.6,00.0,37.5,30.9,16.6,0000.0,0011.44,0004.53,0003.42
2023-05-17 18:48:00,,0829.8,5.00,0.00,29.3,27.8,00.0,37.5,31.0,15.5,0000.0,0011.42,0004.52,0003.42
2023-05-17 18:49:00,,0829.8,4.99,0.00,29.3,27.9,00.0,37.5,31.0,17.5,0000.0,0011.62,0004.50,0003.41
2023-05-17 18:50:00,,0829.8,4.99,0.00,29.3,28.0,00.0,37.6,31.0,17.0,0000.0,0011.86,0004.49,0003.40
2023-05-17 18:51:00,,0829.8,4.99,0.00,29.3,27.3,00.0,37.5,31.0,16.7,0000.0,0011.89,0004.48,0003.40
2023-05-17 18:52:00,,0829.7,5.01,0.00,29.3,26.0,00.0,37.5,30.8,17.1,0000.0,0011.98,0004.49,0003.40
2023-05-17 18:53:00,,0829.7,5.01,0.00,29.3,25.9,00.0,37.4,30.7,16.8,0000.0,0012.60,0004.51,0003.41
2023-05-17 18:54:00,,0829.7,5.01,0.00,29.2,26.1,00.0,37.4,30.6,17.1,0000.0,0011.91,0004.47,0003.41
2023-05-17 18:55:00,,0829.7,5.00,0.00,29.2,26.3,00.0,37.4,30.6,17.8,0000.0,0010.45,0004.43,0003.41
2023-05-17 18:56:00,,0829.7,4.99,0.00,29.2,26.6,00.0,37.4,30.7,17.7,0000.0,0010.01,0004.35,0003.39
2023-05-17 18:57:00,,0829.7,4.99,0.00,29.1,26.9,00.0,37.4,30.7,17.1,0000.0,0009.91,0004.29,0003.36
2023-05-17 18:58:00,,0829.7,5.00,0.00,29.2,27.1,00.0,37.4,30.8,17.4,0000.0,0009.78,0004.28,0003.36
2023-05-17 18:59:00,,0829.6,5.00,0.00,29.2,27.3,00.0,37.5,30.8,17.1,0000.0,0009.61,0004.30,0003.37
